カタログに戻る

ATS 6

運用中科学GEO
NORAD 7318·PAYLOAD·🇺🇸 United States

打ち上げ May 30, 1974 から Cape Canaveral Space Force Station

Loading…

TLE

最新Source: Space-Track

元期: Sep 14, 2026, 13:12 UTC

1 07318U 74039A   26257.55061745 -.00000164  00000-0  00000-0 0  9999
2 07318   1.7425 243.3097 0033217 349.9525 194.7696  1.01979890122912

AllMySatでATS 6をリアルタイム追跡

Download on the App Store